KSNH

Details ICAO KSNH
Name SAVANNAH HARDIN CO
Region United States
Timezone America/Chicago (UTC-5.0)
Plans Departing 11
Arriving 1
Stats Elevation 473 ft / 144 m (AMSL)
Location 35.170252° -88.216726°
Runways 1
Magnetic Variation 2.662° W
Sunrise 2018-05-26 10:43:31 UTC / 2018-05-26 05:43:31 Local
Sunset 2018-05-27 00:59:13 UTC / 2018-05-26 19:59:13 Local
Advertisement - Login to hide

Runways

ID Width Length Bearing (true) Bearing (mag) Surface Threshold Offset Overrun Length
01 100 ft / 30 m 5,012 ft / 1,528 m 7.48° 10.14° Concrete 0 ft / 0 m 0 ft / 0 m
19 100 ft / 30 m 5,012 ft / 1,528 m 187.48° 190.14° Concrete 0 ft / 0 m 0 ft / 0 m

Approach Navaids

Runway Type Ident Frequency Range Bearing (true) Bearing (mag) Slope Elevation
19 Localiser ISNH 108.30 MHz 18 nm / 33 km 187.48° 190.14° - 473 ft / 144 m (AMSL)

Map

Weather


0- 5 10 15 20 25 30 35+ Temperature / ° C

Clouds and Precipitation
Forecast for 2018-05-26 18:00 UTC. Updated 3 hours ago

Ground ~20,000 ft ~40,000 ft Winds

METAR

KSNH 262015Z AUTO VRB04KT 10SM CLR 28/21 A2985 RMK A01

TAF

Not found

Frequencies

Recorded 133.92 MHz AWOS 3
Unicom 122.80 MHz CTAF/UNICOM
Warning: Do not use this data for real-world aviation or navigation. No guarantee of current accuracy is given.